This demonstration page uses our WeatherBlox Daily Observations layout. Learn more.

41.55636, -103.73856

Hourly Observations for May 17, 2015

Temp ( °F °C ) Dew Point ( °F °C ) Humidity (%) Winds ( mph kmh ) Pressure ( in mb ) Visibility ( mi km ) Precip ( " mm )
12:53 am 00:53 Clear 50 10 43 6.1 77 77 WNW 8 13 29.6 1002 10 16.0934 0 0
1:53 am 01:53 Clear 48 8.9 42 5.6 80 80 WNW 9 15 29.61 1003 10 16.0934 0 0
2:53 am 02:53 Clear 47 8.3 42 5.6 83 83 WNW 9 15 29.61 1003 10 16.0934 0 0
3:53 am 03:53 Clear 47 8.3 40 4.4 77 77 W 12 19 29.63 1004 10 16.0934 0 0
4:53 am 04:53 Clear 46 7.8 39 3.9 77 77 W 10 17 29.64 1004 10 16.0934 0 0
5:53 am 05:53 Sunny 47 8.3 39 3.9 74 74 W 20 31 29.67 1005 10 16.0934 0 0
6:53 am 06:53 Partly Cloudy 50 10 42 5.6 74 74 WNW 13 20 29.71 1006 10 16.0934 0 0
7:03 am 07:03 Mostly Cloudy 48 9 43 6 82 82 W 14 22 29.74 1007 10 16.0934 0 0
7:41 am 07:41 Partly Cloudy 53 11.7 44 6.7 72 72 WNW 20 31 29.71 1006 10 16.0934 0 0
7:53 am 07:53 Sunny 54 12.2 44 6.7 69 69 WNW 21 33 29.72 1007 10 16.0934 0 0
8:42 am 08:42 Mostly Cloudy 55 13 45 7 67 67 NW 18 30 29.74 1007 10 16.0934 0 0
8:49 am 08:49 Mostly Cloudy 57 14 43 6 59 59 NW 24 39 29.74 1007 10 16.0934 0 0
8:53 am 08:53 Partly Cloudy 56 13.3 43 6.1 62 62 NW 25 41 29.76 1008 10 16.0934 0 0
9:53 am 09:53 Cloudy 57 13.9 43 6.1 60 60 NW 24 39 29.79 1009 10 16.0934 0 0
10:53 am 10:53 Cloudy 57 13.9 43 6.1 60 60 NW 17 28 29.83 1010 10 16.0934 0 0
11:53 am 11:53 Cloudy with Light Rain 53 11.7 45 7.2 74 74 WNW 21 33 29.88 1012 10 16.0934 0 0.0254
12:53 pm 12:53 Cloudy 60 15.6 44 6.7 56 56 NW 21 33 29.88 1012 10 16.0934 0 0.0254
1:53 pm 13:53 Partly Cloudy 65 18.3 42 5.6 43 43 NW 23 37 29.88 1012 10 16.0934 0 0
2:53 pm 14:53 Mostly Cloudy 63 17.2 41 5 45 45 NW 20 31 29.89 1012 10 16.0934 0 0
3:53 pm 15:53 Partly Cloudy 66 18.9 40 4.4 39 39 NW 22 35 29.88 1012 10 16.0934 0 0
4:53 pm 16:53 Sunny 63 17.2 39 3.9 41 41 NW 22 35 29.94 1014 10 16.0934 0 0
5:53 pm 17:53 Mostly Cloudy 60 15.6 43 6.1 53 53 WNW 16 26 29.98 1015 10 16.0934 0 0
6:53 pm 18:53 Mostly Cloudy 58 14.4 41 5 53 53 NNW 21 33 30.01 1016 10 16.0934 0 0
7:53 pm 19:53 Sunny 55 12.8 41 5 59 59 NNW 17 28 30.05 1018 10 16.0934 0 0
8:53 pm 20:53 Clear 51 10.6 40 4.4 66 66 NNW 15 24 30.1 1019 10 16.0934 0 0
9:53 pm 21:53 Clear 50 10 38 3.3 63 63 NNW 18 30 30.14 1021 10 16.0934 0 0
10:53 pm 22:53 Clear 48 8.9 38 3.3 68 68 NW 13 20 30.19 1022 10 16.0934 0 0
11:53 pm 23:53 Mostly Cloudy 46 7.8 37 2.8 71 71 NW 12 19 30.24 1024 10 16.0934 0 0

Powered by AerisWeather